Overview Statistics Trail Chart Weather Telemetry Raw packets
 

This is the latest recevied weather packets stored in our database for station/object DB0OHL. If no packets are shown the sender has not sent any weather packets the latest 10 day(s).

<< 38 39 40 41 42 43 44 >>
Time Temp. Humidity Pressure Rain* Wind** Luminosity Snow
1777231563 11.67° C 53% 1023.1 hPa 0 mm - - -
1777230961 11.67° C 53% 1023.2 hPa 0 mm - - -
1777230358 11.67° C 54% 1023.1 hPa 0 mm - - -
1777229756 11.67° C 55% 1022.9 hPa 0 mm - - -
1777229153 11.67° C 56% 1022.7 hPa 0 mm - - -
1777228551 12.22° C 55% 1022.7 hPa 0 mm - - -
1777227948 12.22° C 54% 1022.8 hPa 0 mm - - -
1777227346 12.78° C 54% 1022.7 hPa 0 mm - - -
1777226743 13.33° C 54% 1022.6 hPa 0 mm - - -
1777226141 13.33° C 54% 1022.6 hPa 0 mm - - -
1777225538 13.33° C 52% 1022.6 hPa 0 mm - - -
1777224936 13.33° C 50% 1022.6 hPa 0 mm - - -
1777224333 13.33° C 50% 1022.5 hPa 0 mm - - -
1777223731 13.89° C 49% 1022.5 hPa 0 mm - - -
1777223128 14.44° C 47% 1022.6 hPa 0 mm - - -
1777222526 14.44° C 45% 1022.5 hPa 0 mm - - -
1777221923 14.44° C 46% 1022.6 hPa 0 mm - - -
1777221320 14.44° C 46% 1022.7 hPa 0 mm - - -
1777220718 14.44° C 47% 1022.7 hPa 0 mm - - -
1777220115 14.44° C 47% 1022.8 hPa 0 mm - - -
1777219573 14.44° C 47% 1022.9 hPa 0 mm - - -
1777218971 14.44° C 47% 1022.9 hPa 0 mm - - -
1777218368 14.44° C 46% 1022.9 hPa 0 mm - - -
1777217765 13.89° C 47% 1023 hPa 0 mm - - -
1777217163 14.44° C 50% 1023 hPa 0 mm - - -

* Rain latest hour (hover to see other rain measurements)
** Current wind speed in m/s (hover to see current wind gust speed)